| time (UTC) | temp C | wind direction | speed KPH | gust KPH | rain 1hr cm | rain 24hr cm | rain mn cm | humidity % | barometer mb |
| 20260507001250 | 11 | 0 | 4.8 | 9.7 | 0.00 | 1.09 | 0.38 | 59 | 1014.3 |
| 20260507000744 | 11 | 268 | 4.8 | 11.3 | 0.00 | 1.09 | 0.38 | 58 | 1014.3 |
| 20260507000238 | 12 | 269 | 6.4 | 11.3 | 0.00 | 1.12 | 0.38 | 58 | 1014.3 |
| 20260506235732 | 12 | 243 | 4.8 | 11.3 | 0.00 | 1.12 | 0.38 | 57 | 1014.3 |
| 20260506235226 | 12 | 285 | 3.2 | 8.0 | 0.00 | 1.12 | 0.38 | 57 | 1014.2 |
| 20260506234721 | 12 | 285 | 4.8 | 8.0 | 0.00 | 1.14 | 0.38 | 56 | 1014.3 |
| 20260506234214 | 12 | 302 | 3.2 | 8.0 | 0.00 | 1.14 | 0.38 | 55 | 1014.2 |
| 20260506233708 | 12 | 310 | 3.2 | 6.4 | 0.00 | 1.14 | 0.38 | 55 | 1014.3 |
| 20260506233206 | 12 | 310 | 3.2 | 6.4 | 0.00 | 1.14 | 0.38 | 55 | 1014.3 |
| 20260506232707 | 12 | 310 | 3.2 | 6.4 | 0.00 | 1.14 | 0.38 | 56 | 1014.3 |
| 20260506232205 | 11 | 310 | 3.2 | 6.4 | 0.00 | 1.17 | 0.38 | 57 | 1014.4 |
| 20260506231707 | 11 | 315 | 1.6 | 4.8 | 0.00 | 1.17 | 0.38 | 58 | 1014.4 |
| 20260506231206 | 11 | 315 | 1.6 | 6.4 | 0.00 | 1.17 | 0.38 | 59 | 1014.5 |
| 20260506230705 | 11 | 316 | 3.2 | 6.4 | 0.00 | 1.17 | 0.38 | 58 | 1014.5 |
| 20260506230205 | 11 | 316 | 3.2 | 6.4 | 0.00 | 1.19 | 0.38 | 59 | 1014.5 |
| 20260506225706 | 11 | 316 | 3.2 | 6.4 | 0.00 | 1.19 | 0.38 | 57 | 1014.6 |
| 20260506225206 | 11 | 322 | 3.2 | 6.4 | 0.00 | 1.22 | 0.38 | 60 | 1014.5 |
| 20260506224706 | 11 | 322 | 3.2 | 6.4 | 0.00 | 1.24 | 0.38 | 58 | 1014.5 |
| 20260506224206 | 11 | 321 | 3.2 | 9.7 | 0.00 | 1.24 | 0.38 | 57 | 1014.6 |
| 20260506223705 | 11 | 320 | 4.8 | 9.7 | 0.00 | 1.24 | 0.38 | 58 | 1014.5 |
| 20260506223208 | 11 | 0 | 4.8 | 12.9 | 0.00 | 1.24 | 0.38 | 57 | 1014.6 |
| 20260506222704 | 11 | 0 | 6.4 | 12.9 | 0.00 | 1.24 | 0.38 | 56 | 1014.6 |
| 20260506222203 | 11 | 327 | 6.4 | 12.9 | 0.00 | 1.27 | 0.38 | 58 | 1014.5 |
| 20260506221704 | 11 | 333 | 6.4 | 12.9 | 0.00 | 1.27 | 0.38 | 57 | 1014.5 |
| 20260506221159 | 11 | 321 | 4.8 | 11.3 | 0.00 | 1.27 | 0.38 | 57 | 1014.5 |
| 20260506220659 | 11 | 334 | 4.8 | 16.1 | 0.00 | 1.27 | 0.38 | 59 | 1014.4 |
| 20260506220157 | 11 | 324 | 6.4 | 16.1 | 0.00 | 1.30 | 0.38 | 58 | 1014.4 |
| 20260506215657 | 11 | 303 | 8.0 | 16.1 | 0.00 | 1.32 | 0.38 | 57 | 1014.5 |
| 20260506215158 | 11 | 300 | 8.0 | 16.1 | 0.00 | 1.32 | 0.38 | 56 | 1014.4 |
| 20260506214929 | 11 | 0 | 6.4 | 16.1 | 0.00 | 1.37 | 0.38 | 56 | 1014.4 |
| 20260506214158 | 11 | 316 | 8.0 | 17.7 | 0.00 | 1.37 | 0.38 | 57 | 1014.4 |
| 20260506213659 | 12 | 0 | 8.0 | 17.7 | 0.00 | 1.37 | 0.38 | 56 | 1014.3 |
| 20260506213158 | 12 | 0 | 8.0 | 14.5 | 0.00 | 1.37 | 0.38 | 55 | 1014.4 |
| 20260506212658 | 12 | 0 | 8.0 | 19.3 | 0.00 | 1.37 | 0.38 | 54 | 1014.3 |
| 20260506212158 | 12 | 323 | 8.0 | 19.3 | 0.00 | 1.37 | 0.38 | 55 | 1014.2 |
| 20260506211929 | 12 | 280 | 11.3 | 19.3 | 0.00 | 1.37 | 0.38 | 57 | 1014.0 |
| 20260506211153 | 12 | 261 | 12.9 | 19.3 | 0.00 | 1.37 | 0.38 | 58 | 1013.8 |
| 20260506210654 | 12 | 256 | 11.3 | 19.3 | 0.00 | 1.37 | 0.38 | 58 | 1013.9 |
| 20260506210153 | 12 | 265 | 11.3 | 19.3 | 0.00 | 1.40 | 0.38 | 58 | 1013.8 |
| 20260506205653 | 12 | 258 | 11.3 | 19.3 | 0.00 | 1.40 | 0.38 | 59 | 1013.9 |
| 20260506205154 | 12 | 269 | 11.3 | 20.9 | 0.00 | 1.42 | 0.38 | 59 | 1013.9 |
| 20260506204654 | 12 | 236 | 8.0 | 20.9 | 0.00 | 1.45 | 0.38 | 60 | 1013.9 |
| 20260506204153 | 12 | 240 | 9.7 | 17.7 | 0.00 | 1.45 | 0.38 | 60 | 1013.8 |
| 20260506203654 | 12 | 266 | 9.7 | 17.7 | 0.00 | 1.47 | 0.38 | 58 | 1013.9 |
| 20260506203154 | 12 | 251 | 9.7 | 17.7 | 0.00 | 1.50 | 0.38 | 58 | 1013.8 |
| 20260506202921 | 12 | 318 | 8.0 | 16.1 | 0.00 | 1.52 | 0.38 | 58 | 1014.0 |
| 20260506202421 | 12 | 245 | 6.4 | 16.1 | 0.00 | 1.55 | 0.38 | 58 | 1014.0 |
| 20260506201649 | 12 | 0 | 8.0 | 16.1 | 0.00 | 1.60 | 0.38 | 59 | 1014.0 |
| 20260506201149 | 12 | 0 | 8.0 | 16.1 | 0.00 | 1.63 | 0.38 | 58 | 1014.0 |
| 20260506200650 | 11 | 0 | 8.0 | 19.3 | 0.00 | 1.65 | 0.38 | 58 | 1014.0 |
| 20260506200150 | 11 | 0 | 9.7 | 19.3 | 0.00 | 1.68 | 0.38 | 58 | 1014.0 |
| 20260506195650 | 11 | 0 | 11.3 | 19.3 | 0.00 | 1.70 | 0.38 | 58 | 1014.2 |
| 20260506195150 | 11 | 240 | 9.7 | 19.3 | 0.00 | 1.73 | 0.38 | 57 | 1014.3 |
| 20260506194920 | 11 | 255 | 8.0 | 17.7 | 0.00 | 1.75 | 0.38 | 58 | 1014.2 |
| 20260506194146 | 12 | 272 | 6.4 | 17.7 | 0.00 | 1.78 | 0.38 | 59 | 1014.0 |
| 20260506193645 | 11 | 236 | 8.0 | 17.7 | 0.00 | 1.78 | 0.38 | 58 | 1014.0 |
| 20260506193144 | 11 | 250 | 9.7 | 17.7 | 0.00 | 1.80 | 0.38 | 57 | 1014.0 |
| 20260506192644 | 11 | 252 | 9.7 | 17.7 | 0.00 | 1.80 | 0.38 | 57 | 1014.0 |
| 20260506192148 | 11 | 315 | 9.7 | 17.7 | 0.00 | 1.83 | 0.38 | 58 | 1013.9 |
| 20260506192142 | 11 | 248 | 8.0 | 17.7 | 0.00 | 1.80 | 0.38 | 58 | 1014.0 |
| 20260506191410 | 11 | 260 | 8.0 | 17.7 | 0.00 | 1.85 | 0.38 | 58 | 1013.9 |
| 20260506190909 | 11 | 302 | 8.0 | 16.1 | 0.00 | 1.88 | 0.38 | 57 | 1014.2 |
| 20260506190136 | 11 | 285 | 6.4 | 17.7 | 0.00 | 1.88 | 0.38 | 56 | 1014.2 |
| 20260506185636 | 11 | 270 | 6.4 | 17.7 | 0.00 | 1.91 | 0.38 | 56 | 1014.0 |
| 20260506185138 | 11 | 261 | 9.7 | 17.7 | 0.00 | 1.96 | 0.38 | 54 | 1014.2 |
| 20260506185133 | 11 | 324 | 9.7 | 17.7 | 0.00 | 1.93 | 0.38 | 55 | 1014.0 |
| 20260506184133 | 11 | 308 | 9.7 | 22.5 | 0.00 | 1.96 | 0.38 | 57 | 1014.2 |
| 20260506183633 | 11 | 317 | 8.0 | 22.5 | 0.00 | 1.98 | 0.38 | 56 | 1014.4 |
| 20260506183133 | 11 | 325 | 9.7 | 22.5 | 0.00 | 2.01 | 0.38 | 56 | 1014.3 |
| 20260506182902 | 12 | 273 | 11.3 | 22.5 | 0.00 | 2.03 | 0.38 | 55 | 1014.2 |
| 20260506182130 | 12 | 277 | 9.7 | 20.9 | 0.00 | 2.03 | 0.38 | 57 | 1014.2 |
| 20260506181625 | 12 | 282 | 8.0 | 17.7 | 0.00 | 2.06 | 0.38 | 56 | 1014.0 |
| 20260506181119 | 12 | 294 | 8.0 | 17.7 | 0.00 | 2.08 | 0.38 | 56 | 1013.8 |
| 20260506180613 | 12 | 316 | 9.7 | 17.7 | 0.00 | 2.08 | 0.38 | 56 | 1013.8 |
| 20260506180106 | 11 | 338 | 9.7 | 17.7 | 0.00 | 2.08 | 0.38 | 55 | 1014.0 |
| 20260506175601 | 12 | 331 | 9.7 | 17.7 | 0.00 | 2.08 | 0.38 | 56 | 1014.0 |
| 20260506175055 | 12 | 301 | 9.7 | 17.7 | 0.00 | 2.08 | 0.38 | 55 | 1014.0 |
| 20260506174820 | 12 | 329 | 8.0 | 17.7 | 0.00 | 2.08 | 0.38 | 56 | 1014.0 |
| 20260506174043 | 12 | 282 | 9.7 | 19.3 | 0.00 | 2.08 | 0.38 | 55 | 1014.0 |
| 20260506173537 | 12 | 311 | 8.0 | 19.3 | 0.00 | 2.08 | 0.38 | 55 | 1014.0 |
| 20260506173031 | 12 | 331 | 8.0 | 19.3 | 0.00 | 2.11 | 0.38 | 54 | 1014.0 |
| 20260506172755 | 12 | 333 | 9.7 | 24.1 | 0.00 | 2.11 | 0.38 | 56 | 1013.9 |
| 20260506172018 | 12 | 327 | 9.7 | 24.1 | 0.00 | 2.11 | 0.38 | 57 | 1014.0 |
| 20260506171513 | 12 | 312 | 8.0 | 17.7 | 0.00 | 2.13 | 0.38 | 59 | 1013.9 |
| 20260506171006 | 12 | 289 | 8.0 | 17.7 | 0.00 | 2.13 | 0.38 | 59 | 1013.9 |
| 20260506170500 | 12 | 286 | 8.0 | 17.7 | 0.00 | 2.16 | 0.38 | 58 | 1014.0 |
| 20260506165955 | 11 | 329 | 8.0 | 17.7 | 0.00 | 2.16 | 0.38 | 57 | 1014.0 |
| 20260506165449 | 11 | 337 | 9.7 | 17.7 | 0.00 | 2.16 | 0.38 | 55 | 1014.2 |
| 20260506164943 | 12 | 271 | 9.7 | 20.9 | 0.00 | 2.18 | 0.38 | 57 | 1014.3 |
| 20260506164437 | 12 | 299 | 8.0 | 20.9 | 0.00 | 2.18 | 0.38 | 58 | 1014.3 |
| 20260506163930 | 12 | 53 | 11.3 | 20.9 | 0.00 | 2.18 | 0.38 | 56 | 1014.3 |
| 20260506163424 | 12 | 318 | 9.7 | 20.9 | 0.00 | 2.18 | 0.38 | 57 | 1014.3 |
| 20260506162919 | 12 | 32 | 8.0 | 19.3 | 0.00 | 2.18 | 0.38 | 59 | 1014.0 |
| 20260506162413 | 11 | 336 | 9.7 | 19.3 | 0.00 | 2.21 | 0.38 | 57 | 1014.0 |
| 20260506161907 | 11 | 311 | 8.0 | 17.7 | 0.00 | 2.21 | 0.38 | 58 | 1013.8 |
| 20260506161401 | 12 | 332 | 8.0 | 17.7 | 0.00 | 2.21 | 0.38 | 59 | 1014.0 |
| 20260506161132 | 11 | 312 | 6.4 | 16.1 | 0.00 | 2.21 | 0.38 | 63 | 1014.4 |
| 20260506160621 | 11 | 327 | 6.4 | 16.1 | 0.00 | 2.24 | 0.38 | 60 | 1014.4 |
| 20260506155842 | 11 | 272 | 9.7 | 19.3 | 0.00 | 2.26 | 0.38 | 58 | 1014.3 |
| 20260506155337 | 11 | 330 | 9.7 | 19.3 | 0.00 | 2.26 | 0.38 | 59 | 1014.2 |
| 20260506154830 | 11 | 327 | 8.0 | 19.3 | 0.00 | 2.26 | 0.38 | 59 | 1014.2 |
| 20260506154600 | 11 | 300 | 8.0 | 19.3 | 0.00 | 2.26 | 0.38 | 61 | 1014.2 |
| 20260506153829 | 11 | 298 | 8.0 | 19.3 | 0.00 | 2.26 | 0.38 | 60 | 1013.9 |
| 20260506153329 | 11 | 350 | 8.0 | 17.7 | 0.00 | 2.26 | 0.38 | 61 | 1013.9 |
| 20260506152829 | 11 | 336 | 6.4 | 17.7 | 0.00 | 2.26 | 0.38 | 62 | 1013.9 |
| 20260506152328 | 11 | 324 | 6.4 | 17.7 | 0.00 | 2.26 | 0.38 | 65 | 1013.9 |
| 20260506151829 | 11 | 324 | 9.7 | 17.7 | 0.00 | 2.26 | 0.38 | 65 | 1013.9 |
| 20260506151329 | 11 | 51 | 9.7 | 17.7 | 0.00 | 2.26 | 0.38 | 68 | 1013.7 |
| 20260506150828 | 11 | 315 | 9.7 | 22.5 | 0.00 | 2.26 | 0.38 | 70 | 1013.5 |
| 20260506150327 | 10 | 280 | 9.7 | 22.5 | 0.00 | 2.26 | 0.38 | 66 | 1013.6 |
| 20260506145827 | 10 | 321 | 9.7 | 22.5 | 0.00 | 2.26 | 0.38 | 70 | 1013.4 |
| 20260506145327 | 10 | 318 | 9.7 | 22.5 | 0.00 | 2.26 | 0.38 | 68 | 1013.5 |
| 20260506144827 | 10 | 0 | 6.4 | 22.5 | 0.00 | 2.26 | 0.38 | 69 | 1013.5 |
| 20260506144327 | 10 | 333 | 6.4 | 22.5 | 0.00 | 2.26 | 0.38 | 69 | 1013.4 |
| 20260506143828 | 10 | 329 | 8.0 | 19.3 | 0.00 | 2.26 | 0.38 | 72 | 1013.3 |
| 20260506143327 | 10 | 313 | 9.7 | 19.3 | 0.00 | 2.26 | 0.38 | 72 | 1013.4 |
| 20260506142827 | 10 | 295 | 8.0 | 19.3 | 0.00 | 2.26 | 0.38 | 71 | 1013.4 |
| 20260506142326 | 10 | 323 | 8.0 | 17.7 | 0.00 | 2.26 | 0.38 | 73 | 1013.6 |
| 20260506141821 | 10 | 333 | 6.4 | 17.7 | 0.00 | 2.26 | 0.38 | 74 | 1013.4 |
| 20260506141315 | 9 | 330 | 8.0 | 17.7 | 0.00 | 2.26 | 0.38 | 74 | 1013.3 |
| 20260506140815 | 9 | 329 | 9.7 | 17.7 | 0.00 | 2.26 | 0.38 | 74 | 1013.2 |
| 20260506140546 | 10 | 307 | 6.4 | 17.7 | 0.00 | 2.26 | 0.38 | 78 | 1013.1 |
| 20260506140422 | 9 | 0 | 6.4 | 17.7 | 0.00 | 2.26 | 0.38 | 80 | 1013.0 |
| 20260506135315 | 9 | 0 | 8.0 | 17.7 | 0.00 | 2.26 | 0.38 | 79 | 1013.0 |
| 20260506134815 | 9 | 324 | 9.7 | 17.7 | 0.00 | 2.26 | 0.38 | 83 | 1013.0 |
| 20260506134314 | 8 | 5 | 11.3 | 17.7 | 0.00 | 2.26 | 0.38 | 82 | 1013.0 |
| 20260506133815 | 8 | 328 | 8.0 | 14.5 | 0.00 | 2.26 | 0.38 | 84 | 1013.1 |
| 20260506133315 | 8 | 318 | 6.4 | 14.5 | 0.00 | 2.26 | 0.38 | 86 | 1013.0 |
| 20260506132814 | 8 | 327 | 6.4 | 14.5 | 0.00 | 2.26 | 0.38 | 88 | 1013.0 |
| 20260506132314 | 8 | 0 | 4.8 | 14.5 | 0.00 | 2.26 | 0.38 | 89 | 1013.0 |
| 20260506132046 | 8 | 0 | 4.8 | 12.9 | 0.00 | 2.26 | 0.38 | 90 | 1013.0 |
| 20260506131315 | 7 | 0 | 6.4 | 12.9 | 0.00 | 2.26 | 0.38 | 90 | 1013.1 |
| 20260506130813 | 7 | 0 | 6.4 | 9.7 | 0.00 | 2.26 | 0.38 | 91 | 1013.0 |
| 20260506130312 | 7 | 0 | 6.4 | 9.7 | 0.00 | 2.26 | 0.38 | 91 | 1012.9 |
| 20260506130044 | 7 | 0 | 6.4 | 12.9 | 0.00 | 2.26 | 0.38 | 91 | 1012.8 |
| 20260506125543 | 7 | 0 | 6.4 | 12.9 | 0.00 | 2.26 | 0.38 | 92 | 1012.8 |
| 20260506124813 | 7 | 0 | 6.4 | 12.9 | 0.00 | 2.26 | 0.38 | 92 | 1012.7 |
| 20260506124312 | 7 | 0 | 6.4 | 12.9 | 0.00 | 2.26 | 0.38 | 93 | 1012.7 |
| 20260506124043 | 7 | 0 | 6.4 | 12.9 | 0.00 | 2.26 | 0.38 | 93 | 1012.8 |
| 20260506123312 | 6 | 0 | 6.4 | 12.9 | 0.00 | 2.26 | 0.38 | 93 | 1012.7 |
| 20260506122813 | 6 | 0 | 6.4 | 12.9 | 0.00 | 2.26 | 0.38 | 94 | 1012.5 |
| 20260506122308 | 6 | 0 | 3.2 | 8.0 | 0.00 | 2.26 | 0.38 | 94 | 1012.4 |
| 20260506121808 | 6 | 0 | 3.2 | 8.0 | 0.00 | 2.26 | 0.38 | 95 | 1012.3 |
| 20260506121308 | 6 | 0 | 4.8 | 11.3 | 0.00 | 2.26 | 0.38 | 95 | 1012.2 |
| 20260506121039 | 6 | 0 | 4.8 | 11.3 | 0.00 | 2.26 | 0.38 | 95 | 1012.2 |
| 20260506120309 | 6 | 0 | 4.8 | 11.3 | 0.00 | 2.26 | 0.38 | 95 | 1012.4 |
| 20260506115808 | 6 | 259 | 4.8 | 11.3 | 0.00 | 2.26 | 0.38 | 95 | 1012.3 |
| 20260506115307 | 6 | 272 | 4.8 | 11.3 | 0.00 | 2.26 | 0.38 | 95 | 1012.2 |
| 20260506114807 | 6 | 269 | 4.8 | 11.3 | 0.00 | 2.26 | 0.38 | 95 | 1012.0 |
| 20260506114307 | 6 | 280 | 4.8 | 9.7 | 0.00 | 2.26 | 0.38 | 95 | 1011.9 |
| 20260506113807 | 6 | 295 | 4.8 | 8.0 | 0.00 | 2.26 | 0.38 | 95 | 1011.7 |
| 20260506113306 | 6 | 300 | 4.8 | 6.4 | 0.00 | 2.26 | 0.38 | 95 | 1011.6 |
| 20260506112806 | 6 | 302 | 3.2 | 6.4 | 0.00 | 2.26 | 0.38 | 95 | 1011.6 |
| 20260506112306 | 6 | 315 | 3.2 | 6.4 | 0.00 | 2.26 | 0.38 | 96 | 1011.3 |
| 20260506111807 | 6 | 315 | 3.2 | 4.8 | 0.00 | 2.26 | 0.38 | 95 | 1011.3 |
| 20260506111304 | 6 | 315 | 3.2 | 4.8 | 0.00 | 2.26 | 0.38 | 95 | 1011.4 |
| 20260506110802 | 6 | 315 | 3.2 | 4.8 | 0.00 | 2.26 | 0.38 | 95 | 1011.2 |
| 20260506110303 | 6 | 315 | 3.2 | 4.8 | 0.00 | 2.26 | 0.38 | 95 | 1011.3 |
| 20260506105803 | 6 | 315 | 3.2 | 4.8 | 0.00 | 2.26 | 0.38 | 96 | 1011.2 |
| 20260506105300 | 6 | 315 | 1.6 | 3.2 | 0.00 | 2.26 | 0.38 | 95 | 1011.2 |
| 20260506104759 | 6 | 315 | 1.6 | 4.8 | 0.00 | 2.26 | 0.38 | 95 | 1011.2 |
| 20260506104526 | 6 | 315 | 3.2 | 4.8 | 0.00 | 2.26 | 0.38 | 95 | 1011.1 |
| 20260506103754 | 6 | 315 | 3.2 | 8.0 | 0.00 | 2.26 | 0.38 | 95 | 1011.3 |
| 20260506103255 | 6 | 315 | 1.6 | 8.0 | 0.00 | 2.26 | 0.38 | 95 | 1011.3 |
| 20260506102756 | 6 | 315 | 3.2 | 8.0 | 0.00 | 2.26 | 0.38 | 95 | 1011.1 |
| 20260506102250 | 6 | 315 | 4.8 | 8.0 | 0.00 | 2.26 | 0.38 | 95 | 1011.0 |
| 20260506101744 | 6 | 313 | 3.2 | 8.0 | 0.00 | 2.26 | 0.38 | 96 | 1010.9 |
| 20260506101243 | 6 | 309 | 3.2 | 6.4 | 0.00 | 2.26 | 0.38 | 96 | 1010.8 |
| 20260506100732 | 6 | 309 | 1.6 | 6.4 | 0.00 | 2.26 | 0.38 | 96 | 1010.9 |
| 20260506100225 | 6 | 311 | 3.2 | 6.4 | 0.00 | 2.26 | 0.38 | 96 | 1010.7 |
| 20260506095718 | 6 | 311 | 3.2 | 6.4 | 0.00 | 2.26 | 0.38 | 95 | 1011.0 |
| 20260506095443 | 6 | 322 | 3.2 | 6.4 | 0.00 | 2.26 | 0.38 | 95 | 1010.4 |
| 20260506094706 | 6 | 323 | 3.2 | 6.4 | 0.00 | 2.26 | 0.38 | 95 | 1010.3 |
| 20260506094158 | 6 | 339 | 3.2 | 6.4 | 0.00 | 2.26 | 0.38 | 95 | 1010.0 |
| 20260506093652 | 6 | 339 | 3.2 | 6.4 | 0.00 | 2.26 | 0.38 | 95 | 1010.4 |
| 20260506093416 | 6 | 339 | 3.2 | 6.4 | 0.00 | 2.26 | 0.38 | 95 | 1010.3 |
| 20260506092638 | 6 | 340 | 1.6 | 4.8 | 0.00 | 2.26 | 0.38 | 95 | 1010.4 |
| 20260506092402 | 6 | 340 | 0.0 | 4.8 | 0.00 | 2.26 | 0.38 | 95 | 1010.4 |
| 20260506091857 | 6 | 340 | 0.0 | 6.4 | 0.03 | 2.26 | 0.38 | 95 | 1010.2 |
| 20260506091120 | 6 | 339 | 0.0 | 6.4 | 0.03 | 2.26 | 0.38 | 95 | 1010.3 |
| 20260506090613 | 6 | 339 | 1.6 | 9.7 | 0.03 | 2.26 | 0.38 | 95 | 1010.4 |
| 20260506090107 | 6 | 340 | 1.6 | 9.7 | 0.03 | 2.26 | 0.38 | 95 | 1010.6 |
| 20260506085601 | 6 | 336 | 4.8 | 9.7 | 0.03 | 2.26 | 0.38 | 95 | 1010.9 |
| 20260506085055 | 6 | 339 | 4.8 | 9.7 | 0.03 | 2.26 | 0.38 | 95 | 1010.9 |
| 20260506084549 | 6 | 330 | 3.2 | 8.0 | 0.03 | 2.26 | 0.38 | 95 | 1010.7 |
| 20260506084044 | 6 | 56 | 0.0 | 1.6 | 0.03 | 2.26 | 0.38 | 95 | 1010.2 |
| 20260506083537 | 6 | 57 | 0.0 | 3.2 | 0.03 | 2.26 | 0.38 | 95 | 1009.9 |
| 20260506083031 | 6 | 56 | 0.0 | 3.2 | 0.03 | 2.26 | 0.38 | 95 | 1009.9 |
| 20260506082525 | 6 | 55 | 0.0 | 1.6 | 0.03 | 2.26 | 0.38 | 95 | 1010.2 |
| 20260506082020 | 6 | 55 | 0.0 | 1.6 | 0.03 | 2.26 | 0.38 | 95 | 1010.4 |
| 20260506081513 | 6 | 55 | 0.0 | 1.6 | 0.03 | 2.26 | 0.36 | 95 | 1010.3 |
| 20260506081007 | 6 | 55 | 0.0 | 3.2 | 0.03 | 2.26 | 0.36 | 95 | 1010.4 |
| 20260506080733 | 6 | 55 | 0.0 | 3.2 | 0.03 | 2.26 | 0.36 | 95 | 1010.5 |
| 20260506073426 | 6 | 0 | 1.6 | 8.0 | 0.10 | 2.26 | 0.36 | 95 | 1010.3 |
| 20260506072919 | 6 | 0 | 3.2 | 8.0 | 0.10 | 2.26 | 0.36 | 95 | 1009.9 |
| 20260506072509 | 6 | 0 | 3.2 | 8.0 | 0.10 | 2.26 | 0.36 | 95 | 1009.8 |
| 20260506072413 | 6 | 0 | 3.2 | 8.0 | 0.10 | 2.26 | 0.36 | 94 | 1009.7 |
| 20260506070856 | 6 | 0 | 1.6 | 4.8 | 0.10 | 2.24 | 0.33 | 95 | 1009.9 |
| 20260506070350 | 6 | 0 | 1.6 | 4.8 | 0.10 | 2.24 | 0.33 | 95 | 1010.0 |
| 20260506062322 | 6 | 0 | 1.6 | 4.8 | 0.10 | 2.16 | 0.25 | 95 | 1010.8 |
| 20260506061820 | 6 | 0 | 0.0 | 4.8 | 0.10 | 2.13 | 0.25 | 95 | 1010.9 |
| 20260506061320 | 6 | 0 | 0.0 | 6.4 | 0.10 | 2.13 | 0.23 | 95 | 1010.6 |
| 20260506060820 | 6 | 0 | 0.0 | 6.4 | 0.13 | 2.13 | 0.23 | 95 | 1010.4 |
| 20260506060318 | 6 | 0 | 1.6 | 8.0 | 0.15 | 2.13 | 0.23 | 95 | 1010.4 |
| 20260506051303 | 7 | 0 | 1.6 | 6.4 | 0.10 | 2.03 | 0.13 | 96 | 1009.9 |
| 20260506051034 | 7 | 0 | 1.6 | 8.0 | 0.08 | 2.01 | 0.10 | 96 | 1010.0 |
| 20260506050304 | 7 | 0 | 3.2 | 8.0 | 0.05 | 1.98 | 0.08 | 95 | 1010.5 |
| 20260506044804 | 7 | 0 | 3.2 | 6.4 | 0.08 | 1.98 | 0.08 | 95 | 1010.7 |
| 20260506044535 | 7 | 0 | 0.0 | 6.4 | 0.08 | 1.96 | 0.05 | 95 | 1010.6 |
| 20260506043804 | 7 | 0 | 0.0 | 3.2 | 0.08 | 1.96 | 0.05 | 95 | 1010.6 |
| 20260506043308 | 7 | 0 | 0.0 | 1.6 | 0.10 | 1.96 | 0.05 | 95 | 1010.4 |
| 20260506043304 | 7 | 0 | 1.6 | 3.2 | 0.08 | 1.96 | 0.05 | 95 | 1010.5 |
| 20260506042259 | 7 | 0 | 0.0 | 4.8 | 0.10 | 1.96 | 0.05 | 95 | 1010.2 |
| 20260506041759 | 7 | 0 | 1.6 | 4.8 | 0.08 | 1.93 | 0.03 | 95 | 1010.2 |
| 20260506041259 | 7 | 0 | 3.2 | 6.4 | 0.08 | 1.93 | 0.03 | 95 | 1010.2 |
| 20260506040759 | 7 | 0 | 3.2 | 6.4 | 0.10 | 1.93 | 0.03 | 95 | 1009.9 |
| 20260506040259 | 7 | 0 | 3.2 | 6.4 | 0.10 | 1.93 | 0.03 | 95 | 1010.2 |
| 20260506035759 | 7 | 45 | 3.2 | 6.4 | 0.08 | 1.91 | 1.91 | 95 | 1010.3 |
| 20260506035259 | 7 | 45 | 4.8 | 6.4 | 0.10 | 1.91 | 1.91 | 96 | 1010.2 |
| 20260506034800 | 7 | 43 | 3.2 | 8.0 | 0.10 | 1.91 | 1.91 | 95 | 1010.3 |
| 20260506034259 | 7 | 41 | 1.6 | 8.0 | 0.13 | 1.88 | 1.88 | 95 | 1010.4 |
| 20260506033755 | 7 | 26 | 1.6 | 4.8 | 0.15 | 1.88 | 1.88 | 96 | 1010.5 |
| 20260506033255 | 7 | 26 | 1.6 | 4.8 | 0.13 | 1.85 | 1.85 | 95 | 1010.8 |
| 20260506033024 | 7 | 26 | 1.6 | 4.8 | 0.18 | 1.85 | 1.85 | 96 | 1010.6 |
| 20260506032253 | 7 | 26 | 3.2 | 4.8 | 0.20 | 1.85 | 1.85 | 95 | 1010.6 |
| 20260506031753 | 7 | 26 | 3.2 | 4.8 | 0.23 | 1.85 | 1.85 | 95 | 1010.6 |
| 20260506031255 | 7 | 57 | 1.6 | 4.8 | 0.23 | 1.85 | 1.85 | 96 | 1010.5 |
| 20260506030753 | 7 | 63 | 0.0 | 0.0 | 0.23 | 1.83 | 1.83 | 96 | 1010.4 |
| 20260506030253 | 7 | 63 | 0.0 | 3.2 | 0.25 | 1.83 | 1.83 | 95 | 1010.5 |
| 20260506025753 | 7 | 63 | 0.0 | 3.2 | 0.25 | 1.83 | 1.83 | 96 | 1010.3 |
| 20260506025524 | 7 | 63 | 0.0 | 9.7 | 0.25 | 1.80 | 1.80 | 95 | 1010.5 |
| 20260506024749 | 7 | 63 | 3.2 | 9.7 | 0.25 | 1.78 | 1.78 | 95 | 1010.4 |
| 20260506024517 | 7 | 63 | 3.2 | 9.7 | 0.25 | 1.75 | 1.78 | 95 | 1010.4 |
| 20260506023746 | 7 | 68 | 3.2 | 16.1 | 0.28 | 1.73 | 1.73 | 96 | 1010.5 |
| 20260506023240 | 7 | 57 | 4.8 | 16.1 | 0.28 | 1.70 | 1.70 | 96 | 1010.4 |
| 20260506022733 | 8 | 63 | 6.4 | 16.1 | 0.28 | 1.68 | 1.68 | 96 | 1010.4 |
| 20260506022227 | 8 | 0 | 6.4 | 16.1 | 0.25 | 1.65 | 1.65 | 96 | 1010.4 |
| 20260506021722 | 8 | 0 | 3.2 | 8.0 | 0.25 | 1.63 | 1.63 | 96 | 1010.6 |
| 20260506021216 | 8 | 0 | 1.6 | 4.8 | 0.25 | 1.63 | 1.63 | 96 | 1010.5 |
| 20260506020710 | 8 | 0 | 0.0 | 4.8 | 0.23 | 1.60 | 1.60 | 96 | 1010.6 |
| 20260506020205 | 8 | 0 | 1.6 | 4.8 | 0.23 | 1.57 | 1.57 | 96 | 1010.5 |
| 20260506015657 | 8 | 329 | 1.6 | 4.8 | 0.23 | 1.55 | 1.57 | 96 | 1010.5 |
| 20260506015152 | 8 | 330 | 3.2 | 6.4 | 0.25 | 1.55 | 1.55 | 96 | 1010.2 |
| 20260506014918 | 8 | 330 | 1.6 | 6.4 | 0.23 | 1.52 | 1.52 | 96 | 1010.2 |
| 20260506014139 | 8 | 330 | 3.2 | 6.4 | 0.20 | 1.47 | 1.47 | 96 | 1010.2 |
| 20260506013634 | 8 | 329 | 3.2 | 6.4 | 0.18 | 1.45 | 1.45 | 96 | 1010.0 |
| 20260506013127 | 8 | 327 | 3.2 | 6.4 | 0.18 | 1.42 | 1.42 | 96 | 1010.0 |
| 20260506012622 | 8 | 327 | 3.2 | 6.4 | 0.15 | 1.40 | 1.40 | 96 | 1010.3 |
| 20260506012116 | 8 | 327 | 3.2 | 6.4 | 0.18 | 1.40 | 1.40 | 96 | 1010.3 |
| 20260506011610 | 8 | 327 | 4.8 | 6.4 | 0.15 | 1.37 | 1.37 | 96 | 1010.3 |
| 20260506011103 | 8 | 327 | 4.8 | 6.4 | 0.18 | 1.37 | 1.37 | 96 | 1010.0 |
| 20260506010828 | 8 | 329 | 3.2 | 6.4 | 0.18 | 1.37 | 1.37 | 96 | 1010.0 |
| 20260506010051 | 8 | 332 | 3.2 | 6.4 | 0.18 | 1.35 | 1.35 | 96 | 1009.9 |
| 20260506005546 | 8 | 332 | 3.2 | 4.8 | 0.15 | 1.32 | 1.32 | 96 | 1009.9 |
| 20260506005040 | 8 | 336 | 3.2 | 8.0 | 0.13 | 1.30 | 1.30 | 96 | 1010.2 |
| 20260506004534 | 8 | 337 | 3.2 | 8.0 | 0.15 | 1.30 | 1.30 | 96 | 1009.9 |
| 20260506004258 | 8 | 337 | 3.2 | 8.0 | 0.13 | 1.27 | 1.27 | 96 | 1009.8 |
| 20260506003519 | 8 | 338 | 3.2 | 8.0 | 0.13 | 1.27 | 1.27 | 96 | 1009.7 |
| 20260506003014 | 8 | 341 | 3.2 | 8.0 | 0.10 | 1.24 | 1.24 | 96 | 1009.8 |
| 20260506002508 | 8 | 342 | 3.2 | 4.8 | 0.13 | 1.24 | 1.24 | 96 | 1009.7 |
| 20260506002002 | 8 | 343 | 1.6 | 4.8 | 0.10 | 1.22 | 1.22 | 96 | 1009.7 |